[[{"header":{"parameterUnit":"m.s-1","parameterCategory":1,"la1":30.2991,"la2":30.254,"lo1":-89.0895,"lo2":-89.0444,"dy":0.0017,"dx":0.0017,"nx":28,"ny":28,"refTime":"2025-05-29T09:00:00:Z","depth":0,"parameterNumber":2,"parameterNumberName":"U-component_of_WINDS"},"data":[0,0,0,0,0,0,0,0,0,0,0,0,0,0,0,0,0,0,0,0,0,0,0,0,0,0,0,0,0,0,0,0,0,0,0,0,0,0,0,0,0,0,0,0,0,0,0,0,0,0,0,0,0,0,0,0,0,0,-0.6729,-0.673,0,-0.6784,-0.6785,-0.6786,-0.6824,-0.6824,-0.6825,-0.6825,-0.6883,-0.6884,-0.6885,0,0,0,0,0,0,0,0,0,0,0,0,0,-0.6657,-0.6658,-0.6729,-0.673,-0.6731,-0.6784,-0.6785,-0.6786,-0.6824,-0.6824,-0.6825,-0.6825,-0.6882,-0.6884,-0.6885,0,0,0,0,0,0,0,0,0,0,0,0,0,-0.6698,-0.6658,-0.6729,-0.6756,-0.6759,-0.6784,-0.6785,-0.6786,-0.6824,-0.6824,-0.6825,-0.6825,-0.6882,-0.6884,-0.6886,-0.6889,0,0,-0.6891,-0.6892,0,0,0,0,0,0,0,0,-0.6695,-0.67,-0.6751,-0.6754,-0.6758,-0.6798,-0.6781,-0.682,-0.6824,-0.6799,-0.6825,-0.6826,-0.6854,-0.6858,-0.6868,-0.6891,-0.6894,-0.6892,-0.6893,-0.6894,-0.6894,0,0,0,0,0,0,0,-0.6692,-0.6698,-0.6751,-0.6752,-0.6756,-0.6765,-0.6772,-0.6788,-0.6824,-0.6802,-0.6805,-0.681,-0.6856,-0.6866,-0.687,-0.6895,-0.6892,-0.6893,-0.6894,-0.6895,-0.6919,-0.6919,0,0,0,0,0,0,-0.6685,-0.6695,-0.6749,-0.6753,-0.6727,-0.6766,-0.6773,-0.6784,-0.6824,-0.683,-0.681,-0.6812,-0.6863,-0.6867,-0.6872,-0.6875,-0.6894,-0.6895,-0.6896,-0.692,-0.6919,-0.6919,0,0,0,0,0,0,-0.6684,-0.669,-0.6747,-0.6725,-0.6733,-0.6767,-0.6779,-0.6785,-0.6795,-0.683,-0.6837,-0.6814,-0.6863,-0.6869,-0.6883,-0.6878,-0.6896,-0.6898,-0.692,-0.692,-0.6919,-0.6884,0,0,0,0,0,0,-0.6681,-0.6689,-0.6691,-0.6725,-0.6734,-0.6758,-0.6779,-0.6786,-0.6798,-0.6801,-0.6835,-0.6841,-0.6864,-0.688,-0.6885,-0.6881,-0.6899,-0.6921,-0.692,-0.6919,-0.6885,-0.6882,-0.6879,0,0,0,0,0,-0.6679,-0.668,-0.6691,-0.6697,-0.6737,-0.6757,-0.6763,-0.6789,-0.6798,-0.6799,-0.6821,-0.684,-0.6878,-0.6881,-0.6887,-0.6883,-0.6921,-0.692,-0.6919,-0.6887,-0.6882,-0.6879,0,0,0,0,0,0,-0.6646,-0.6685,-0.6697,-0.671,-0.673,-0.6764,-0.6767,-0.6784,-0.6802,-0.6804,-0.6836,-0.6843,-0.6853,-0.687,-0.6873,-0.6886,-0.6902,-0.6902,-0.6875,-0.6871,-0.6868,-0.6863,-0.6901,0,0,0,0,0,-0.664,-0.6653,-0.6687,-0.6694,-0.6703,-0.6733,-0.6743,-0.6761,-0.6783,-0.6792,-0.6815,-0.6837,-0.6853,-0.6863,-0.688,-0.6888,-0.6894,-0.6888,-0.6885,-0.6882,-0.6881,-0.6883,-0.688,-0.6915,-0.6915,-0.6915,0,0,-0.6628,-0.6651,-0.6658,-0.6688,-0.6706,-0.6718,-0.674,-0.6754,-0.6763,-0.6795,-0.6808,-0.6826,-0.6851,-0.6861,-0.6867,-0.6875,-0.6873,-0.688,-0.6878,-0.6879,-0.6882,-0.6878,-0.6875,-0.6914,-0.6914,-0.6914,0,0,-0.6613,-0.6632,-0.6639,-0.6655,-0.6681,-0.67,-0.6702,-0.6733,-0.6745,-0.6759,-0.6782,-0.6794,-0.6822,-0.6838,-0.685,-0.6837,-0.6854,-0.6841,-0.6824,-0.6825,-0.6823,-0.682,-0.6813,-0.681,-0.6841,-0.6841,-0.6841,0,-0.6595,-0.6615,-0.6641,-0.6651,-0.6663,-0.669,-0.6697,-0.6712,-0.6742,-0.6749,-0.6758,-0.6791,-0.6811,-0.6824,-0.682,-0.6829,-0.6831,-0.6838,-0.6821,-0.6819,-0.6817,-0.681,-0.6808,-0.6839,-0.6839,-0.6839,-0.6839,0,-0.659,-0.6603,-0.6606,-0.6632,-0.6644,-0.6653,-0.6679,-0.6688,-0.6703,-0.6721,-0.6734,-0.6757,-0.6778,-0.6783,-0.68,-0.6797,-0.6801,-0.6815,-0.6831,-0.6811,-0.6806,-0.6804,-0.6836,-0.6837,-0.6838,-0.6838,0,0,-0.6559,-0.6596,-0.6597,-0.6607,-0.6636,-0.6646,-0.6655,-0.6674,-0.668,-0.6699,-0.6706,-0.6727,-0.6739,-0.6753,-0.6771,-0.6773,-0.6757,-0.6786,-0.6787,-0.6778,-0.6752,-0.6741,-0.6737,-0.6768,-0.6768,-0.6768,-0.675,0,-0.6546,-0.6563,-0.6585,-0.6593,-0.6604,-0.6629,-0.6636,-0.6654,-0.667,-0.6681,-0.6699,-0.6712,-0.6729,-0.6736,-0.6739,-0.6758,-0.6752,-0.676,-0.6774,-0.6774,-0.6765,-0.6735,-0.6724,-0.6705,-0.6748,-0.6747,-0.6747,0,-0.6536,-0.6551,-0.656,-0.6584,-0.6589,-0.6595,-0.6613,-0.6624,-0.6643,-0.6655,-0.6667,-0.6686,-0.6695,-0.6709,-0.6721,-0.6725,-0.6732,-0.6742,-0.6742,-0.6744,-0.6759,-0.6734,-0.67,-0.6697,-0.6745,-0.6745,-0.6745,0,-0.6509,-0.6532,-0.6539,-0.6548,-0.6577,-0.658,-0.6593,-0.6613,-0.6621,-0.6637,-0.6642,-0.6659,-0.6667,-0.6679,-0.6701,-0.671,-0.6709,-0.6726,-0.6718,-0.6717,-0.6716,-0.6716,-0.6681,-0.6723,-0.6723,-0.6723,-0.6723,0,-0.6493,-0.6497,-0.6527,-0.6532,-0.6536,-0.656,-0.6564,-0.6579,-0.6596,-0.6603,-0.6625,-0.6632,-0.6661,-0.667,-0.6687,-0.6692,-0.6696,-0.6705,-0.6709,-0.6702,-0.6701,-0.6706,-0.6708,-0.6722,-0.6722,-0.6722,-0.6722,0,-0.6464,-0.6485,-0.6494,-0.6519,-0.6526,-0.6528,-0.6549,-0.6554,-0.657,-0.6578,-0.6582,-0.6607,-0.6618,-0.6641,-0.666,-0.6671,-0.6671,-0.668,-0.6664,-0.6667,-0.6656,-0.6656,-0.6623,-0.6619,-0.6664,-0.6664,-0.6663,0,-0.6452,-0.6456,-0.648,-0.6485,-0.6496,-0.6506,-0.6514,-0.6537,-0.6544,-0.6564,-0.6566,-0.6579,-0.659,-0.6607,-0.6627,-0.664,-0.6648,-0.6635,-0.665,-0.6642,-0.6645,-0.6644,-0.6643,-0.6632,-0.6631,-0.6631,-0.663,0,-0.6428,-0.6437,-0.6448,-0.646,-0.6469,-0.6481,-0.6494,-0.6497,-0.6523,-0.653,-0.654,-0.6549,-0.6566,-0.6577,-0.6593,-0.6605,-0.6621,-0.6625,-0.6624,-0.6616,-0.6606,-0.6609,-0.6653,-0.6626,-0.6627,-0.6627,-0.6627,-0.6627,-0.6407,-0.6409,-0.6426,-0.6436,-0.6447,-0.6457,-0.6462,-0.6477,-0.6486,-0.65,-0.6513,-0.6522,-0.6538,-0.656,-0.6571,-0.6578,-0.6586,-0.6584,-0.6584,-0.6582,-0.6578,-0.6605,-0.6581,-0.6581,-0.6581,-0.6581,-0.6581,0,-0.6382,-0.6393,-0.6402,-0.6417,-0.6424,-0.6437,-0.6451,-0.6456,-0.6463,-0.6476,-0.6486,-0.6496,-0.6507,-0.6526,-0.6537,-0.6539,-0.6546,-0.6541,-0.654,-0.6542,-0.6571,-0.6571,-0.6534,-0.6534,-0.6534,-0.6534,-0.6534,-0.6534,-0.637,-0.6374,-0.6384,-0.6393,-0.6404,-0.6412,-0.6418,-0.6427,-0.6437,-0.6447,-0.6455,-0.6467,-0.6482,-0.6494,-0.6503,-0.6508,-0.651,-0.6502,-0.6509,-0.6536,-0.6541,-0.6545,-0.6544,-0.6503,-0.6503,-0.648,-0.6479,-0.6479]},{"header":{"parameterUnit":"m.s-1","parameterCategory":1,"la1":30.2991,"la2":30.254,"lo1":-89.0895,"lo2":-89.0444,"dy":0.0017,"dx":0.0017,"nx":28,"ny":28,"refTime":"2025-05-29T09:00:00:Z","depth":0,"parameterNumber":3,"parameterNumberName":"V-component_of_WINDS"},"data":[0,0,0,0,0,0,0,0,0,0,0,0,0,0,0,0,0,0,0,0,0,0,0,0,0,0,0,0,0,0,0,0,0,0,0,0,0,0,0,0,0,0,0,0,0,0,0,0,0,0,0,0,0,0,0,0,0,0,1.6872,1.6876,0,1.7308,1.7313,1.7318,1.7453,1.7451,1.7449,1.7447,1.79,1.7913,1.7927,0,0,0,0,0,0,0,0,0,0,0,0,0,1.6162,1.6174,1.6871,1.6877,1.6882,1.7308,1.7314,1.732,1.7454,1.7451,1.7448,1.7446,1.7895,1.7912,1.7928,0,0,0,0,0,0,0,0,0,0,0,0,0,1.6522,1.6178,1.687,1.7,1.7016,1.7306,1.7314,1.7321,1.7454,1.7451,1.7448,1.7445,1.7889,1.791,1.7931,1.8125,0,0,1.7995,1.8004,0,0,0,0,0,0,0,0,1.6501,1.6548,1.6976,1.6992,1.701,1.7323,1.723,1.7591,1.7455,1.7288,1.7447,1.7443,1.7711,1.7746,1.7835,1.8146,1.8166,1.7997,1.801,1.8019,1.8025,0,0,0,0,0,0,0,1.6476,1.653,1.7044,1.6982,1.7003,1.704,1.7087,1.7299,1.7512,1.7302,1.7313,1.7363,1.772,1.7815,1.7847,1.8172,1.7996,1.8015,1.8028,1.8036,1.8672,1.8676,0,0,0,0,0,0,1.6428,1.6508,1.7031,1.7057,1.6742,1.7055,1.7108,1.7226,1.751,1.755,1.7365,1.7367,1.778,1.7822,1.7863,1.8115,1.8019,1.8038,1.805,1.8668,1.8673,1.8678,0,0,0,0,0,0,1.6412,1.6473,1.7013,1.6786,1.6857,1.7071,1.7202,1.7236,1.7332,1.7557,1.7597,1.7422,1.7779,1.7834,1.806,1.8132,1.8048,1.8067,1.8663,1.867,1.8676,1.8615,0,0,0,0,0,0,1.6391,1.6467,1.654,1.6786,1.6869,1.7199,1.7206,1.7247,1.7367,1.7374,1.7622,1.766,1.7781,1.8028,1.8081,1.816,1.8083,1.8658,1.8666,1.8674,1.8612,1.8619,1.8625,0,0,0,0,0,1.6365,1.6505,1.6543,1.6605,1.6965,1.7203,1.7251,1.7386,1.7372,1.745,1.7596,1.7652,1.8115,1.805,1.8111,1.8197,1.8654,1.8664,1.8673,1.8609,1.8617,1.8625,0,0,0,0,0,0,1.6263,1.654,1.6585,1.6808,1.6981,1.7225,1.7327,1.7389,1.7571,1.757,1.7732,1.7787,1.8003,1.8123,1.8045,1.8404,1.8387,1.8409,1.8318,1.8328,1.8334,1.8302,1.8101,0,0,0,0,0,1.6266,1.6433,1.6668,1.6842,1.6927,1.7112,1.722,1.731,1.7496,1.757,1.7733,1.7913,1.8101,1.822,1.8404,1.8629,1.8689,1.8719,1.8725,1.873,1.8748,1.8882,1.89,1.8709,1.8709,1.8709,0,0,1.6274,1.6447,1.6543,1.6826,1.6971,1.7145,1.7172,1.7354,1.7486,1.7599,1.7824,1.7949,1.8162,1.839,1.8499,1.8497,1.8814,1.8742,1.8743,1.876,1.8894,1.8912,1.8928,1.8716,1.8715,1.8714,0,0,1.638,1.6524,1.6689,1.6834,1.7052,1.7175,1.7214,1.7451,1.7539,1.7767,1.7857,1.8017,1.8334,1.8484,1.8602,1.8769,1.883,1.8824,1.8859,1.8988,1.9003,1.9017,1.9082,1.9103,1.8841,1.8841,1.8841,0,1.6363,1.6626,1.6765,1.6945,1.7069,1.7179,1.7349,1.7484,1.7751,1.7837,1.783,1.8234,1.8384,1.8652,1.8693,1.8783,1.8837,1.8798,1.8989,1.9005,1.9021,1.9084,1.9108,1.8839,1.884,1.884,1.884,0,1.6598,1.678,1.6887,1.7143,1.7279,1.7452,1.7622,1.7744,1.7822,1.7947,1.8181,1.8366,1.8592,1.8662,1.874,1.8943,1.8936,1.8957,1.8944,1.9035,1.9098,1.9123,1.8837,1.8838,1.8838,1.8839,0,0,1.665,1.6983,1.7021,1.7141,1.7392,1.7537,1.7718,1.7938,1.8042,1.8224,1.8383,1.8651,1.8675,1.8808,1.8904,1.9017,1.9145,1.9026,1.9034,1.9045,1.9387,1.9372,1.9397,1.9185,1.9191,1.9195,1.937,0,1.679,1.7116,1.7249,1.7513,1.7686,1.7795,1.7954,1.8127,1.825,1.8417,1.8553,1.8743,1.8756,1.8838,1.8954,1.9104,1.9216,1.9093,1.934,1.9347,1.9286,1.9429,1.9413,1.957,1.9395,1.94,1.9403,0,1.6997,1.7182,1.7463,1.7699,1.7776,1.7916,1.8132,1.8289,1.849,1.8572,1.8723,1.8814,1.9013,1.8985,1.9264,1.9178,1.9287,1.9376,1.9386,1.9417,1.9382,1.9468,1.9622,1.9647,1.9442,1.9439,1.9436,0,1.7012,1.7331,1.7542,1.7641,1.792,1.8016,1.8137,1.8335,1.8461,1.8651,1.8736,1.8945,1.9061,1.9224,1.9372,1.9337,1.9639,1.9622,1.9717,1.9713,1.9777,1.9772,1.9955,1.9841,1.984,1.984,1.9839,0,1.7157,1.7327,1.7554,1.7684,1.7879,1.8032,1.8222,1.8351,1.8527,1.8688,1.8794,1.8943,1.9127,1.9301,1.9418,1.9635,1.9685,1.976,1.979,1.9753,1.9744,1.9829,1.9824,1.9846,1.9845,1.9843,1.9842,0,1.7208,1.7365,1.7604,1.7849,1.7915,1.8049,1.8261,1.8394,1.8522,1.8724,1.8781,1.8983,1.9195,1.9357,1.9631,1.971,1.9941,1.9971,1.9873,1.9889,1.9976,1.9967,2.0224,2.0268,2.0118,2.0119,2.012,0,1.7291,1.7424,1.7684,1.7799,1.7919,1.8102,1.8232,1.839,1.8521,1.8763,1.8869,1.9087,1.927,1.9603,1.9777,1.9989,2.0027,2.0103,2.006,2.0021,2.0035,2.0027,2.0044,2.0109,2.0109,2.011,2.0111,0,1.7425,1.7498,1.7679,1.789,1.8042,1.8216,1.8392,1.8481,1.8671,1.8814,1.9031,1.9173,1.9455,1.9672,1.9903,2.0032,2.0106,2.0123,2.0157,2.0122,2.0062,2.0101,1.9892,2.0117,2.0116,2.0116,2.0115,2.0115,1.7498,1.7624,1.7828,1.8029,1.8178,1.8342,1.848,1.8627,1.881,1.9051,1.9133,1.9358,1.9562,1.9879,2.0011,2.0192,2.0195,2.0242,2.0256,2.0266,2.0265,2.0029,2.0234,2.0234,2.0234,2.0234,2.0234,0,1.7641,1.7779,1.7962,1.8206,1.8365,1.8418,1.8618,1.8749,1.8945,1.9128,1.9307,1.956,1.9772,1.9964,2.0187,2.0295,2.0335,2.0349,2.0345,2.0375,2.0247,2.0198,2.0313,2.0313,2.0313,2.0313,2.0313,2.0313,1.7735,1.7952,1.805,1.8344,1.8482,1.8702,1.8813,1.8966,1.9114,1.939,1.9568,1.969,1.988,2.0118,2.0317,2.0369,2.0448,2.0454,2.0514,2.0392,2.0382,2.0373,2.0328,2.0469,2.0469,2.0628,2.0629,2.063]}]]